• In Deutschland
  • Länderverzeichnis
  • Für 7 Tage
  • Wassertemperatur
  • Satellitenkarten
  • Wetterkarte
  • Widgets
  • user-avatar
    Anmelden

    Stündliche Wetter Viernheim

    Heute, 25 Juni, Montag

    Zeit Temperatur Niederschläge Wind Luftdruck Luftfeuchtigkeit
    00:00 +15°C° 0 mm 2 m/S 757 mmHg 78%
    01:00 +15°C° 0 mm 1 m/S 757 mmHg 81%
    02:00 +14°C° 0 mm 1 m/S 757 mmHg 83%
    03:00 +14°C° 0 mm 1 m/S 757 mmHg 84%
    04:00 +14°C° 0 mm 1 m/S 757 mmHg 86%
    05:00 +14°C° 0 mm 1 m/S 758 mmHg 84%
    06:00 +15°C° 0 mm 2 m/S 758 mmHg 82%
    07:00 +16°C° 0 mm 2 m/S 758 mmHg 80%
    08:00 +16°C° 0 mm 2 m/S 758 mmHg 76%
    09:00 +17°C° 0 mm 2 m/S 758 mmHg 73%
    10:00 +18°C° 0 mm 2 m/S 758 mmHg 69%
    11:00 +18°C° 0 mm 2 m/S 758 mmHg 66%
    12:00 +19°C° 0 mm 2 m/S 759 mmHg 63%
    13:00 +20°C° 0 mm 2 m/S 759 mmHg 59%
    14:00 +20°C° 0 mm 2 m/S 758 mmHg 58%
    15:00 +21°C° 0 mm 3 m/S 758 mmHg 57%
    16:00 +22°C° 0 mm 3 m/S 758 mmHg 56%
    17:00 +21°C° 0 mm 2 m/S 758 mmHg 59%
    18:00 +21°C° 0 mm 2 m/S 758 mmHg 63%
    19:00 +20°C° 0 mm 2 m/S 758 mmHg 66%
    20:00 +20°C° 0 mm 1 m/S 758 mmHg 71%
    21:00 +19°C° 0 mm 1 m/S 758 mmHg 75%
    22:00 +15°C° 0 mm 0 m/S 759 mmHg 80%
    23:00 +15°C° 0 mm 0 m/S 759 mmHg 81%

    Morgen, 26 Juni, Dienstag

    Zeit Temperatur Niederschläge Wind Luftdruck Luftfeuchtigkeit
    00:00 +15°C° 0 mm 0 m/S 759 mmHg 83%
    01:00 +14°C° 0 mm 0 m/S 759 mmHg 84%
    02:00 +14°C° 0 mm 0 m/S 759 mmHg 85%
    03:00 +14°C° 0 mm 0 m/S 758 mmHg 86%
    04:00 +13°C° 0 mm 0 m/S 758 mmHg 87%
    05:00 +15°C° 0 mm 1 m/S 758 mmHg 84%
    06:00 +16°C° 0 mm 1 m/S 758 mmHg 81%
    07:00 +18°C° 0 mm 1 m/S 759 mmHg 77%
    08:00 +20°C° 0 mm 1 m/S 759 mmHg 73%
    09:00 +21°C° 0 mm 1 m/S 758 mmHg 68%
    10:00 +22°C° 0 mm 1 m/S 758 mmHg 63%
    11:00 +21°C° 0 mm 2 m/S 758 mmHg 63%
    12:00 +23°C° 0 mm 2 m/S 758 mmHg 62%
    13:00 +23°C° 0 mm 2 m/S 758 mmHg 62%
    14:00 +23°C° 0 mm 2 m/S 758 mmHg 61%
    15:00 +24°C° 0 mm 2 m/S 758 mmHg 59%
    16:00 +24°C° 0 mm 3 m/S 758 mmHg 58%
    17:00 +24°C° 0 mm 2 m/S 758 mmHg 61%
    18:00 +23°C° 0 mm 2 m/S 758 mmHg 64%
    19:00 +23°C° 0 mm 2 m/S 758 mmHg 67%
    20:00 +21°C° 0 mm 2 m/S 758 mmHg 71%
    21:00 +20°C° 0 mm 1 m/S 758 mmHg 76%
    22:00 +19°C° 0 mm 1 m/S 758 mmHg 81%
    23:00 +18°C° 0 mm 1 m/S 758 mmHg 83%

    übermorgen, 27 Juni, Mittwoch

    Zeit Temperatur Niederschläge Wind Luftdruck Luftfeuchtigkeit
    00:00 +16°C° 0 mm 1 m/S 758 mmHg 85%
    01:00 +16°C° 0 mm 1 m/S 758 mmHg 87%
    02:00 +15°C° 0 mm 1 m/S 758 mmHg 88%
    03:00 +15°C° 0 mm 1 m/S 758 mmHg 88%
    04:00 +15°C° 0 mm 1 m/S 758 mmHg 89%
    05:00 +16°C° 0 mm 1 m/S 758 mmHg 85%
    06:00 +18°C° 0 mm 1 m/S 758 mmHg 81%
    07:00 +19°C° 0 mm 1 m/S 758 mmHg 78%
    08:00 +20°C° 0 mm 2 m/S 758 mmHg 72%
    09:00 +21°C° 0 mm 2 m/S 758 mmHg 65%
    10:00 +24°C° 0 mm 3 m/S 758 mmHg 59%
    11:00 +25°C° 0 mm 3 m/S 758 mmHg 54%
    12:00 +25°C° 0 mm 4 m/S 757 mmHg 48%
    13:00 +26°C° 0 mm 4 m/S 757 mmHg 42%
    14:00 +26°C° 0 mm 4 m/S 757 mmHg 42%
    15:00 +26°C° 0 mm 4 m/S 757 mmHg 43%
    16:00 +27°C° 0 mm 4 m/S 756 mmHg 44%
    17:00 +26°C° 0 mm 4 m/S 756 mmHg 48%
    18:00 +25°C° 0 mm 4 m/S 757 mmHg 53%
    19:00 +23°C° 0 mm 4 m/S 757 mmHg 58%
    20:00 +21°C° 0 mm 3 m/S 757 mmHg 62%
    21:00 +20°C° 0 mm 3 m/S 757 mmHg 66%
    22:00 +18°C° 0 mm 3 m/S 757 mmHg 71%
    23:00 +18°C° 0 mm 3 m/S 757 mmHg 74%

    28 Juni, Donnerstag

    Zeit Temperatur Niederschläge Wind Luftdruck Luftfeuchtigkeit
    00:00 +17°C° 0 mm 2 m/S 757 mmHg 77%
    01:00 +17°C° 0 mm 2 m/S 757 mmHg 80%
    02:00 +16°C° 0 mm 2 m/S 757 mmHg 82%
    03:00 +16°C° 0 mm 2 m/S 756 mmHg 84%
    04:00 +15°C° 0 mm 2 m/S 756 mmHg 85%
    05:00 +16°C° 0 mm 2 m/S 756 mmHg 82%
    06:00 +17°C° 0 mm 3 m/S 756 mmHg 78%
    07:00 +18°C° 0 mm 3 m/S 756 mmHg 75%
    08:00 +19°C° 0 mm 4 m/S 756 mmHg 72%
    09:00 +20°C° 0 mm 4 m/S 756 mmHg 69%
    10:00 +22°C° 0 mm 4 m/S 756 mmHg 66%
    11:00 +22°C° 0,3 mm 4 m/S 755 mmHg 68%
    12:00 +22°C° 0,3 mm 4 m/S 755 mmHg 69%
    13:00 +24°C° 0,3 mm 3 m/S 755 mmHg 71%
    14:00 +24°C° 0,2 mm 3 m/S 754 mmHg 71%
    15:00 +24°C° 0,2 mm 3 m/S 754 mmHg 70%
    16:00 +24°C° 0,2 mm 3 m/S 754 mmHg 70%
    17:00 +24°C° 0,4 mm 3 m/S 754 mmHg 72%
    18:00 +24°C° 0,4 mm 3 m/S 753 mmHg 74%
    19:00 +24°C° 0,4 mm 3 m/S 753 mmHg 76%
    20:00 +22°C° 0,2 mm 3 m/S 753 mmHg 78%
    21:00 +22°C° 0,2 mm 3 m/S 753 mmHg 80%
    22:00 +21°C° 0,2 mm 3 m/S 753 mmHg 82%
    23:00 +21°C° 0 mm 3 m/S 753 mmHg 83%

    29 Juni, Freitag

    Zeit Temperatur Niederschläge Wind Luftdruck Luftfeuchtigkeit
    00:00 +20°C° 0 mm 3 m/S 753 mmHg 83%
    01:00 +20°C° 0 mm 3 m/S 753 mmHg 84%
    02:00 +19°C° 0,1 mm 3 m/S 753 mmHg 85%
    03:00 +19°C° 0,1 mm 3 m/S 753 mmHg 85%
    04:00 +19°C° 0,1 mm 3 m/S 753 mmHg 85%
    05:00 +19°C° 0,1 mm 3 m/S 753 mmHg 84%
    06:00 +20°C° 0,1 mm 3 m/S 753 mmHg 82%
    07:00 +21°C° 0,1 mm 3 m/S 753 mmHg 80%
    08:00 +22°C° 0 mm 4 m/S 753 mmHg 76%
    09:00 +23°C° 0 mm 4 m/S 753 mmHg 71%
    10:00 +26°C° 0 mm 4 m/S 753 mmHg 66%
    11:00 +26°C° 0 mm 4 m/S 753 mmHg 65%
    12:00 +27°C° 0 mm 4 m/S 753 mmHg 65%
    13:00 +27°C° 0 mm 3 m/S 753 mmHg 64%
    14:00 +28°C° 0,1 mm 3 m/S 752 mmHg 62%
    15:00 +28°C° 0,1 mm 3 m/S 752 mmHg 60%
    16:00 +29°C° 0,1 mm 3 m/S 752 mmHg 58%
    17:00 +28°C° 0,2 mm 3 m/S 752 mmHg 62%
    18:00 +28°C° 0,2 mm 3 m/S 752 mmHg 66%
    19:00 +27°C° 0,2 mm 3 m/S 752 mmHg 70%
    20:00 +26°C° 0,1 mm 2 m/S 753 mmHg 73%
    21:00 +25°C° 0,1 mm 2 m/S 753 mmHg 76%
    22:00 +24°C° 0,1 mm 2 m/S 754 mmHg 79%
    23:00 +23°C° 0 mm 2 m/S 754 mmHg 79%

    30 Juni, Samstag

    Zeit Temperatur Niederschläge Wind Luftdruck Luftfeuchtigkeit
    00:00 +21°C° 0 mm 2 m/S 754 mmHg 80%
    01:00 +20°C° 0 mm 2 m/S 754 mmHg 81%
    02:00 +20°C° 0 mm 2 m/S 754 mmHg 81%
    03:00 +19°C° 0 mm 2 m/S 754 mmHg 82%
    04:00 +19°C° 0 mm 2 m/S 754 mmHg 83%
    05:00 +20°C° 0 mm 2 m/S 754 mmHg 80%
    06:00 +21°C° 0 mm 2 m/S 754 mmHg 77%
    07:00 +21°C° 0 mm 2 m/S 754 mmHg 74%
    08:00 +24°C° 0 mm 2 m/S 754 mmHg 67%
    09:00 +26°C° 0 mm 2 m/S 754 mmHg 61%
    10:00 +28°C° 0 mm 2 m/S 754 mmHg 54%
    11:00 +29°C° 0 mm 3 m/S 754 mmHg 50%
    12:00 +30°C° 0 mm 3 m/S 754 mmHg 46%
    13:00 +31°C° 0 mm 3 m/S 754 mmHg 42%
    14:00 +31°C° 0 mm 3 m/S 753 mmHg 42%
    15:00 +33°C° 0 mm 3 m/S 753 mmHg 42%
    16:00 +33°C° 0 mm 3 m/S 753 mmHg 42%
    17:00 +31°C° 0 mm 3 m/S 753 mmHg 47%
    18:00 +30°C° 0 mm 3 m/S 753 mmHg 52%
    19:00 +29°C° 0 mm 2 m/S 753 mmHg 56%
    20:00 +27°C° 0 mm 3 m/S 753 mmHg 60%
    21:00 +26°C° 0 mm 3 m/S 753 mmHg 63%
    22:00 +24°C° 0 mm 3 m/S 754 mmHg 66%
    23:00 +23°C° 0 mm 2 m/S 754 mmHg 69%
    Mehr zeigen